Temp
18 18 18 19 19 19 19 19 19 19 19 19 19 19 19 19 19 19 19 19 19 20 20 20 20 20 20 20 20 20 20 20 20 19 18 17 17 18 18 19 20 21 21 21 22 22 22 21 20 20 22 20 17 18 18 16 15 19 20 19 18 16 16 17 16 15 16 16 14 13 13 14 14 11 10 10 10 9 8 7 6 5 4 4 5 5 5 4
18 18 18 19 19 19 19 19 19 19 19 19 19 20 20 20 20 19 20 19 19 19 19 20 20 20 20 20 20 20 20 20 20 18 17 17 18 18 19 20 20 21 21 22 22 21 21 20 18 19 21 19 17 18 18 16 16 18 17 18 19 16 16 16 16 15 15 16 14 13 12 13 14 12 10 12 11 9 10 9 7 7 5 3 4 4 4 4
18 18 18 19 19 19 19 19 19 19 19 19 19 19 20 20 20 20 20 19 19 19 19 19 19 20 20 20 20 20 20 20 20 18 18 18 18 18 19 20 20 21 21 21 22 21 21 20 19 19 21 20 17 18 20 17 16 15 16 20 18 16 16 14 15 16 15 15 15 13 11 12 12 11 11 12 11 9 12 11 9 10 6 3 3 3 3 3
18 18 18 19 19 19 19 19 19 19 19 19 19 19 19 19 20 20 20 20 19 19 19 19 19 20 20 21 20 20 20 20 19 17 18 18 18 19 19 20 20 21 21 21 21 21 20 19 19 20 21 20 17 18 19 17 17 15 16 20 17 14 16 15 15 15 13 13 14 13 11 12 11 10 11 11 12 11 11 11 11 12 7 4 3 2 3 3
18 18 18 19 19 19 19 19 19 19 19 19 19 19 19 19 20 20 20 20 19 19 19 19 19 20 20 21 20 19 20 20 19 17 18 18 18 19 19 20 21 21 21 21 21 20 20 19 19 20 20 20 19 19 18 15 15 16 15 15 15 14 16 16 13 13 12 12 13 13 13 13 10 10 11 11 14 14 11 9 10 10 7 4 3 3 3 2
18 18 18 19 19 19 19 19 19 19 19 19 19 19 19 19 19 20 20 20 19 19 19 20 19 20 20 20 19 19 20 20 18 18 18 18 19 19 19 20 20 21 21 21 21 20 20 19 20 20 19 18 18 18 18 14 14 17 15 13 14 14 16 15 13 13 12 13 14 13 13 11 11 12 10 10 14 12 7 5 5 6 5 4 3 2 2 2
18 18 18 18 19 19 19 19 19 20 20 19 19 19 19 19 19 19 19 19 19 19 20 20 20 20 20 20 20 20 19 19 17 18 18 18 19 19 20 20 20 21 21 21 20 20 20 21 21 19 18 18 17 17 16 15 15 18 17 14 14 14 14 14 12 12 12 14 14 12 12 11 12 12 9 9 11 8 4 2 2 4 4 4 3 2 2 2
18 18 18 18 19 19 19 19 19 20 20 19 19 19 19 19 19 19 19 19 19 20 20 20 20 20 20 20 20 20 18 18 17 18 18 18 19 19 20 20 20 21 20 20 19 19 19 21 19 17 18 18 16 17 15 16 18 17 16 14 14 13 13 11 11 11 11 12 11 11 13 11 10 10 9 10 10 6 3 2 2 3 3 3 2 2 2 2
18 18 18 18 18 19 19 19 19 20 19 19 19 19 19 19 19 19 19 19 19 20 20 20 21 21 21 19 18 19 18 17 18 18 18 19 19 19 20 20 20 21 20 18 18 19 20 20 18 18 19 16 16 17 15 17 18 16 15 14 14 13 12 11 11 11 11 11 10 12 13 10 8 8 10 11 9 5 3 3 2 3 3 3 3 2 1 1
18 18 18 18 19 19 19 19 19 19 19 19 19 19 19 19 19 19 19 20 19 19 20 20 20 20 21 19 18 20 18 18 18 18 19 19 19 20 20 20 20 20 19 18 18 18 19 19 16 16 18 16 16 15 14 16 16 14 14 14 14 13 12 12 12 11 11 11 10 13 13 10 8 9 12 10 6 4 4 4 3 3 4 4 3 1 1 1
18 18 18 19 19 19 19 19 19 19 19 19 19 19 19 19 19 19 19 20 20 20 20 20 20 20 20 19 19 19 18 18 18 18 19 19 19 20 19 19 19 20 19 18 17 17 18 18 14 15 18 17 16 15 14 14 14 13 15 15 14 13 12 12 13 12 12 12 10 12 12 9 8 10 13 9 5 4 5 4 3 3 4 3 3 1 0 1
18 18 18 19 19 19 19 19 19 19 19 19 19 19 19 19 19 19 19 20 20 20 20 20 21 21 20 19 18 18 18 18 18 18 18 19 19 19 19 19 19 19 19 18 17 17 17 17 17 18 18 16 16 16 15 13 13 13 15 16 15 14 14 13 13 12 12 13 11 11 13 11 10 11 11 7 4 4 5 5 4 3 3 3 3 1 0 0
18 18 18 19 19 19 19 19 19 19 19 19 19 19 19 19 19 19 19 20 20 20 20 21 21 21 21 19 18 18 18 18 18 18 19 19 19 19 19 19 19 19 19 18 17 18 18 18 18 17 16 16 16 15 14 13 13 14 14 15 15 15 15 13 12 12 12 12 10 12 15 14 12 11 10 5 4 4 5 5 4 3 3 3 2 2 1 0
18 18 18 19 19 19 19 19 19 19 19 19 19 19 19 19 20 20 20 20 20 21 21 20 21 21 20 19 18 18 18 18 18 19 19 19 19 19 19 19 19 19 19 18 17 17 17 18 18 15 13 14 14 13 14 14 14 14 14 13 13 15 16 13 11 12 13 11 10 12 14 14 14 13 9 5 4 5 6 5 4 3 3 3 2 2 1 0
18 18 18 18 19 19 19 19 19 19 19 19 19 19 19 19 20 20 20 20 20 21 21 20 21 20 19 19 19 19 19 18 18 18 18 18 19 19 19 19 18 18 18 18 17 17 17 18 18 16 14 12 13 16 16 15 14 13 15 16 12 13 15 13 10 10 13 11 9 12 13 13 13 13 9 4 4 5 6 6 4 4 3 3 2 1 1 1
18 18 18 18 18 19 19 19 19 19 19 19 19 20 19 20 20 20 20 20 20 21 21 21 20 20 20 19 19 19 18 17 17 17 17 18 18 19 19 19 18 18 18 18 18 18 18 18 14 12 14 14 15 17 17 16 16 13 14 17 14 14 14 14 12 9 11 12 10 12 13 13 13 11 6 4 4 4 5 6 4 4 3 3 2 2 2 1
18 18 18 18 18 19 19 19 19 19 19 19 20 20 19 19 20 20 20 20 21 20 21 20 20 20 19 19 19 18 17 16 17 17 17 18 18 19 19 19 17 17 18 18 19 18 17 15 12 12 14 14 13 16 18 18 18 15 13 15 14 13 13 14 14 10 9 12 11 11 11 12 12 11 7 4 4 4 5 6 5 4 3 3 2 2 2 1
19 19 19 19 19 19 19 19 19 19 19 19 20 20 20 19 20 20 20 21 21 20 21 20 19 20 19 18 18 17 16 16 17 16 17 18 18 18 18 18 15 16 19 18 18 17 15 14 14 16 16 14 14 17 19 18 17 17 15 15 14 12 13 13 14 11 10 11 11 11 10 11 11 11 9 5 4 4 5 5 5 4 4 3 2 2 2 1
19 19 19 19 19 19 19 20 20 20 20 20 20 20 20 19 19 20 20 20 20 20 20 18 18 19 18 17 16 16 16 16 17 16 17 17 17 18 17 16 15 17 19 19 18 15 14 16 16 18 17 15 15 15 17 15 14 15 14 14 14 14 13 13 12 10 9 10 11 10 10 10 10 10 10 7 4 4 5 5 5 4 4 3 3 2 2 2
19 19 19 20 20 20 20 20 20 20 20 20 20 20 20 19 19 20 19 17 17 16 17 16 15 17 17 16 15 16 17 17 17 16 16 16 17 18 17 16 17 18 17 17 17 13 12 18 18 17 16 14 12 12 12 12 11 12 12 12 12 12 13 12 12 9 7 10 12 10 10 10 10 10 10 8 4 4 4 4 4 4 4 4 3 3 2 2
19 19 19 20 20 20 20 20 20 20 20 19 20 19 19 19 19 20 18 16 13 12 14 14 13 15 16 15 15 15 16 17 17 15 16 16 16 18 17 16 19 19 14 12 14 12 13 18 17 14 13 11 11 10 10 10 10 11 11 12 12 11 12 12 11 9 8 10 12 10 10 11 11 10 10 7 5 5 5 5 5 5 5 4 4 3 3 3
19 19 19 20 20 20 20 20 20 20 20 19 19 18 16 16 17 17 17 18 15 12 12 13 13 15 15 15 15 14 15 17 17 16 16 15 16 18 17 17 19 18 13 12 15 16 17 18 15 11 10 9 9 8 10 11 10 11 11 12 13 12 12 12 9 8 8 10 12 11 10 11 11 10 10 7 6 6 5 5 5 5 5 5 4 4 3 3
20 20 20 20 20 20 20 20 20 20 20 20 19 17 15 16 16 16 17 19 18 14 14 15 16 16 16 16 15 14 16 16 17 16 14 15 16 15 16 18 17 16 15 15 17 18 18 16 11 8 9 11 11 10 11 11 11 11 11 12 14 12 12 14 11 9 9 9 10 10 8 9 10 11 10 7 5 6 5 5 5 5 5 5 4 4 4 4
20 20 20 20 20 20 20 20 20 20 20 19 18 17 16 17 17 17 17 17 17 16 15 14 14 15 16 16 15 15 16 14 14 15 14 15 15 13 15 15 15 16 14 13 15 17 17 12 8 7 10 11 12 11 11 13 13 12 11 13 14 12 12 13 11 8 9 9 7 8 10 11 12 13 14 8 3 5 5 5 5 4 4 4 4 4 4 4
20 20 20 20 20 20 20 20 20 19 19 19 18 17 17 18 17 17 18 17 17 17 15 14 13 14 15 15 15 14 15 14 14 14 13 13 14 14 14 12 14 17 13 10 14 16 14 9 7 10 11 10 12 12 12 13 14 13 12 12 12 12 11 11 9 9 11 11 9 9 13 15 14 15 16 11 6 7 5 4 6 5 4 4 4 4 4 4
20 20 20 20 20 20 20 20 19 19 19 18 17 18 18 18 17 17 18 18 19 18 16 16 16 16 15 15 14 13 15 16 14 13 13 12 12 14 15 12 12 15 13 11 14 14 12 8 8 11 12 11 12 13 11 11 14 15 12 10 10 11 11 10 9 9 12 13 9 8 12 14 13 15 15 10 8 10 8 6 7 6 5 5 5 5 5 4
20 20 20 20 20 20 20 20 19 19 19 18 18 18 18 18 17 17 18 19 19 18 17 17 16 16 16 13 12 15 17 16 14 13 12 12 12 13 16 15 14 14 11 12 16 14 11 10 10 11 12 12 13 13 12 10 14 15 10 8 10 10 10 9 9 9 10 10 9 8 10 11 11 13 11 7 10 13 11 11 10 8 7 5 5 5 5 5
19 20 20 20 20 20 20 19 19 19 18 18 18 18 18 17 17 17 19 20 18 17 17 16 16 16 15 12 12 15 15 13 15 15 11 12 13 13 16 15 14 14 10 13 19 14 10 12 12 12 12 13 13 13 11 10 13 13 8 8 9 8 8 8 8 8 7 8 11 9 9 11 12 13 10 7 11 14 14 15 14 13 11 8 6 6 5 5
19 19 20 20 20 19 19 19 19 18 18 18 18 18 18 17 18 18 19 20 18 17 16 16 16 15 14 14 14 13 13 13 15 14 11 12 13 13 15 12 12 13 10 12 17 13 10 11 11 12 13 13 13 12 10 11 12 10 7 7 7 6 7 6 7 8 7 10 14 11 9 11 13 14 13 10 12 14 16 16 15 15 13 9 7 6 5 4
19 19 19 19 19 19 19 19 18 18 17 17 18 18 17 17 18 19 19 19 18 17 16 16 16 14 14 16 16 13 14 14 12 12 12 13 13 12 11 9 11 14 12 12 13 12 9 8 8 10 12 12 11 9 8 10 10 8 8 9 9 7 6 6 6 7 9 12 13 9 8 11 13 14 15 14 14 15 16 16 15 15 14 12 9 7 6 4
18 19 19 19 19 18 19 18 17 17 17 17 18 17 17 18 18 19 19 17 17 17 16 16 14 13 14 16 16 14 14 14 11 13 15 13 14 14 12 13 14 14 15 15 14 11 9 9 9 9 9 9 10 9 7 6 7 8 10 12 12 11 9 9 8 8 12 14 12 8 8 10 12 14 15 14 13 12 13 15 15 15 15 15 12 8 6 4
18 18 18 18 18 18 18 17 17 17 17 17 17 17 18 19 18 20 19 17 18 17 16 15 13 13 13 14 15 13 13 14 12 12 13 12 13 14 12 13 15 16 18 16 15 14 12 11 10 9 8 8 11 13 9 7 8 10 12 12 13 13 12 13 13 11 13 13 9 7 9 10 11 13 14 13 13 12 11 12 14 14 14 14 13 9 6 4
18 18 18 18 18 18 17 17 17 17 17 17 17 18 19 19 19 18 17 18 18 15 13 13 12 12 13 15 15 11 11 13 12 11 10 10 13 12 9 8 10 14 17 14 14 17 15 12 9 11 11 8 10 14 13 12 11 12 12 13 14 14 13 14 13 12 12 12 8 6 8 11 12 14 14 13 15 13 10 10 10 9 10 11 9 6 4 3
18 17 17 17 17 17 17 17 17 17 17 17 18 19 18 19 18 16 17 18 15 12 12 12 12 13 13 15 13 10 13 14 11 11 12 12 15 15 12 9 8 11 14 14 14 15 17 16 12 12 11 9 10 11 12 12 11 10 10 10 13 13 13 14 13 13 13 11 8 6 9 12 14 15 13 12 13 11 10 8 6 6 6 5 4 4 4 3
18 17 17 17 17 17 16 16 16 17 17 18 19 18 18 19 18 16 17 16 13 13 12 10 12 16 15 14 11 9 13 14 11 12 13 14 15 15 14 12 9 10 13 15 14 12 15 17 12 8 8 8 10 8 7 11 12 9 7 10 12 12 13 12 10 9 9 8 7 7 9 11 13 13 11 10 11 10 9 7 6 8 6 3 4 6 5 5
17 17 17 17 16 16 16 16 17 17 17 18 19 18 18 18 17 16 15 13 13 14 14 13 14 17 17 15 13 11 11 12 12 14 13 12 13 13 12 12 9 9 12 14 14 13 15 16 10 7 8 7 8 8 7 10 12 9 8 11 10 8 10 12 8 6 5 8 9 9 10 11 11 14 13 11 13 13 12 11 10 11 8 6 8 9 7 6
17 17 17 16 16 16 16 16 17 17 17 18 19 18 17 16 14 13 12 11 11 12 15 17 16 16 17 16 16 13 12 12 12 14 15 13 13 13 11 11 8 8 9 10 13 13 14 15 10 8 10 8 5 7 7 7 9 10 11 11 8 6 9 10 9 9 8 9 10 9 10 11 12 14 14 14 16 16 15 14 13 13 12 11 11 10 8 7
17 17 16 16 16 16 16 17 17 17 17 18 18 16 15 14 11 9 9 9 10 12 15 18 16 14 15 16 16 13 12 15 14 14 15 15 14 13 12 11 8 6 6 7 11 12 11 15 12 7 9 9 5 8 10 7 6 9 10 8 8 10 11 9 9 11 10 10 10 9 8 8 10 13 14 15 15 14 14 13 13 14 13 12 11 10 9 8
16 17 17 16 16 16 16 17 16 16 18 18 18 17 13 12 10 7 7 8 10 13 15 16 14 14 14 14 16 13 11 14 14 14 15 15 14 12 11 11 9 6 5 6 10 11 10 14 14 8 7 8 8 10 11 10 7 7 8 7 8 9 10 9 8 9 10 10 10 10 9 10 10 11 13 14 14 13 13 12 12 13 12 11 10 9 9 8
15 17 18 16 16 17 16 17 17 18 18 16 16 15 12 11 10 6 5 7 10 12 14 14 13 14 15 13 13 13 11 12 13 14 15 14 14 13 10 9 10 8 6 6 9 10 10 12 13 10 8 9 11 11 11 12 10 8 9 9 8 7 7 8 7 7 9 10 9 9 10 12 11 10 12 14 14 13 13 12 11 11 10 10 9 8 8 7
15 17 18 15 16 16 15 17 16 14 16 15 13 13 11 10 10 7 5 5 8 9 10 12 13 13 15 14 12 12 11 12 11 12 14 13 14 14 9 5 8 8 7 9 10 10 11 11 12 12 10 12 13 9 7 9 9 9 11 10 9 9 8 9 9 6 6 8 9 8 9 12 12 11 13 14 13 13 12 10 9 9 9 9 8 8 8 7
16 18 17 15 17 16 16 17 11 7 13 15 12 10 9 8 9 8 7 6 8 8 8 10 11 12 13 13 12 11 12 13 11 12 14 12 13 13 7 2 4 7 8 10 9 8 9 9 10 11 11 11 10 5 4 6 6 7 8 7 8 9 9 11 11 8 6 6 6 5 6 10 12 12 12 13 11 11 10 9 8 8 8 8 8 8 7 7
17 18 17 16 16 16 17 17 12 10 13 11 7 8 7 7 9 8 8 8 9 9 10 10 11 11 12 11 11 12 12 13 13 13 13 12 11 8 2 -0 3 6 9 10 9 8 8 9 10 11 11 10 7 4 4 5 5 8 8 6 6 8 8 9 8 7 7 7 6 6 7 10 11 10 10 11 10 9 9 9 9 9 8 8 8 7 7 7
15 15 15 16 17 17 18 18 16 16 14 9 8 9 8 7 8 9 9 10 10 10 11 12 11 11 11 9 10 12 12 13 14 12 11 12 10 3 -2 -1 2 6 8 8 8 8 9 11 11 11 12 12 10 9 8 7 7 8 8 5 5 6 6 6 5 5 6 8 8 8 8 11 12 11 11 11 10 10 10 9 9 9 8 8 8 7 7 7
14 14 14 15 15 15 15 14 15 17 14 11 12 11 10 9 8 8 9 9 8 9 11 11 9 9 9 9 10 11 10 12 14 11 9 10 9 3 -0 1 2 5 5 3 4 7 9 10 10 11 12 12 12 13 11 10 9 8 8 6 5 5 6 7 7 6 7 7 6 8 9 11 12 11 11 11 10 9 9 9 9 9 8 8 8 7 7 7
16 17 16 16 14 13 10 7 10 15 14 13 14 11 11 12 9 6 7 9 8 7 9 10 8 9 10 10 11 12 10 10 11 10 10 11 10 5 1 2 2 2 2 1 3 6 8 8 8 10 11 11 13 12 9 8 9 9 9 7 6 6 5 7 7 7 8 6 6 8 9 9 10 10 10 10 9 9 8 8 8 8 8 7 7 7 7 7
15 16 16 16 16 15 12 9 11 14 13 13 15 12 11 13 11 8 7 8 8 7 8 9 8 10 12 11 12 13 10 9 9 9 10 10 9 5 1 1 2 1 1 2 3 6 8 8 8 8 9 10 10 10 8 7 7 8 8 8 7 6 5 5 6 7 8 7 7 9 9 8 8 9 9 9 8 8 7 7 7 7 7 7 7 7 7 6
14 15 12 11 14 16 15 13 11 12 11 11 12 11 12 12 13 13 10 8 7 7 9 11 10 10 12 11 13 13 11 10 11 10 10 8 8 7 5 3 1 0 2 4 4 6 8 8 7 6 8 9 8 7 7 6 6 7 7 7 6 5 5 6 6 7 7 7 7 9 9 8 8 8 8 8 7 7 7 7 7 6 6 7 6 6 6 6
12 13 9 8 12 14 11 9 9 11 12 11 11 11 12 14 14 13 10 9 10 8 9 13 13 10 10 10 12 13 12 13 13 11 11 9 8 9 10 7 3 0 2 5 5 4 7 8 6 4 6 8 7 7 6 6 6 6 6 6 6 5 5 5 5 6 6 6 7 7 7 6 7 7 7 7 7 6 6 6 6 6 6 6 6 6 5 5
13 14 12 10 12 10 8 7 9 12 12 11 13 13 11 13 15 12 9 11 14 11 8 12 13 10 8 9 11 13 13 13 13 11 10 10 9 9 10 10 7 3 3 5 5 4 6 8 5 4 6 8 8 8 7 6 5 5 6 7 6 5 5 4 4 4 4 5 5 5 4 5 6 7 7 6 7 6 6 6 6 6 6 6 5 5 5 4
12 12 11 14 14 10 9 9 9 13 14 13 14 13 12 13 13 12 11 10 11 12 10 11 12 9 7 7 9 12 10 9 10 10 8 9 10 9 10 9 7 6 5 4 4 5 6 6 5 5 7 8 8 8 7 6 5 5 7 8 8 7 7 6 5 5 5 6 6 5 5 5 6 7 6 6 6 5 5 5 5 5 6 5 5 4 4 4
11 10 10 13 15 11 10 11 10 13 15 13 12 12 12 12 10 10 13 10 7 8 8 9 10 10 9 10 10 10 8 6 7 6 5 6 7 7 7 6 6 7 7 4 3 3 4 6 6 6 7 8 8 7 6 6 8 9 9 9 9 9 8 7 7 6 5 5 6 6 6 6 7 6 5 5 5 4 4 5 5 5 5 5 4 4 4 4
Height
824 824 823 823 823 823 823 822 822 822 822 822 822 822 822 822 822 822 822 822 821 821 821 821 820 820 820 819 819 819 818 818 817 816 817 821 821 819 817 816 816 814 813 812 811 811 811 811 810 809 808 811 816 818 818 821 824 822 832 840 844 853 851 846 852 853 849 850 854 856 857 856 857 863 865 865 866 868 870 871 872 872 872 870 869 869 868 870
825 825 824 824 824 824 823 823 823 823 822 822 822 822 822 822 822 822 822 822 821 821 821 821 820 820 820 819 819 818 818 818 817 817 819 822 820 818 817 816 815 814 813 812 812 812 812 813 811 810 811 815 820 819 819 824 825 830 842 841 842 849 847 845 847 849 849 848 852 857 858 857 855 860 864 862 865 869 866 868 873 872 872 872 871 871 871 872
826 825 825 825 824 824 824 824 823 824 823 823 823 823 823 822 822 822 822 822 821 821 821 821 821 820 820 819 819 819 818 818 818 820 821 821 819 818 817 816 815 814 813 812 812 812 812 813 812 812 814 817 824 821 820 826 829 838 841 836 842 847 845 849 848 847 849 849 852 857 860 860 859 862 862 860 865 869 863 863 867 866 871 874 873 872 872 873
826 826 826 825 825 825 825 825 824 824 824 824 824 823 823 823 823 822 822 822 822 822 821 821 821 820 820 819 818 818 818 819 821 823 822 820 819 818 816 815 815 813 813 813 812 812 812 813 812 814 816 820 826 825 826 830 831 838 840 835 842 847 845 848 848 849 851 852 852 855 860 859 861 864 862 862 863 864 862 861 860 859 866 872 872 872 872 872
827 826 826 826 825 825 825 825 824 825 825 824 824 824 824 823 823 822 822 822 822 822 821 821 821 820 820 818 818 817 818 823 825 823 821 820 818 818 816 815 814 813 813 812 812 813 812 813 813 816 819 823 826 825 830 837 835 838 844 844 845 848 845 846 851 852 854 856 854 856 858 856 861 862 862 862 856 855 858 860 860 859 863 867 868 870 871 872
827 827 827 826 826 826 826 825 825 825 825 825 824 824 824 823 823 822 822 822 822 822 821 821 820 820 819 818 818 817 820 827 825 822 821 820 818 818 816 815 814 813 812 812 813 813 814 815 815 819 824 828 832 830 833 839 837 836 845 849 848 849 845 847 852 852 854 855 852 855 855 858 861 858 863 863 853 855 861 862 862 861 862 864 865 867 868 870
828 828 827 827 827 826 826 826 825 825 825 825 825 825 824 823 823 822 822 822 822 822 822 821 820 820 820 819 819 819 822 825 824 823 822 820 819 818 816 815 813 812 812 812 812 814 816 816 818 824 828 831 835 835 836 838 835 835 843 848 848 849 848 850 854 854 856 852 853 857 855 859 859 857 865 862 855 859 862 861 861 860 862 864 866 866 866 867
829 828 828 828 827 827 827 826 826 826 826 826 825 825 825 824 823 823 823 822 823 822 821 820 819 820 820 819 820 822 824 825 824 823 821 820 819 817 816 815 814 813 813 813 814 815 817 818 821 826 828 833 834 835 838 836 834 837 844 848 849 851 852 856 857 856 857 855 858 858 855 859 862 863 864 857 855 861 862 861 861 860 862 864 865 865 865 866
830 829 829 828 827 827 827 826 826 826 826 826 826 826 825 825 824 824 823 823 823 822 821 820 819 819 819 820 820 824 826 826 825 823 821 820 819 818 816 816 815 814 813 814 815 814 816 820 823 823 826 834 835 836 839 836 836 841 845 848 850 852 855 858 857 858 858 858 860 855 855 862 866 866 859 853 857 860 862 862 862 862 862 863 863 863 864 864
830 830 829 828 828 827 827 827 827 826 827 826 826 826 826 826 825 825 824 824 823 823 822 820 819 819 819 819 822 827 827 825 825 823 821 820 820 819 817 816 816 815 815 816 816 816 817 818 822 822 824 833 836 839 843 839 841 845 847 849 852 854 857 857 855 858 859 859 860 853 854 862 867 864 851 851 860 861 862 863 863 863 862 862 862 862 863 863
831 830 829 829 828 827 827 827 827 827 827 827 827 827 826 826 825 825 824 824 824 823 822 821 820 819 819 820 824 828 827 825 825 823 822 821 820 819 818 818 817 816 816 816 817 818 817 818 821 821 823 831 836 841 844 844 846 848 847 848 853 855 856 857 855 857 857 857 860 856 856 863 868 861 848 851 860 860 861 862 863 863 862 862 862 862 862 862
831 830 829 828 828 828 828 828 828 828 828 827 827 827 827 826 826 825 825 824 824 823 823 821 820 820 820 822 825 828 826 825 825 823 823 822 821 820 820 819 819 819 818 818 819 818 819 820 819 821 827 833 838 842 843 848 850 849 848 847 851 854 853 854 855 857 856 855 859 858 853 855 860 853 847 855 860 861 862 861 862 862 861 862 861 862 861 861
831 830 829 828 828 828 828 828 828 828 828 828 828 827 827 826 826 826 825 825 824 823 822 821 821 820 820 824 827 827 826 827 825 824 823 822 822 821 821 821 821 821 820 819 820 819 820 821 820 824 831 834 840 844 843 849 850 848 851 851 852 852 851 854 857 858 857 857 860 859 848 840 847 848 848 858 860 860 861 859 861 861 861 861 861 861 860 860
831 830 829 829 829 829 829 829 829 829 829 828 828 827 827 826 826 826 825 825 823 823 822 821 821 820 822 827 827 826 827 827 825 824 823 823 823 822 822 823 822 822 822 822 821 821 821 822 821 826 834 838 842 844 845 850 851 851 854 857 862 856 848 855 861 858 855 859 861 859 853 840 838 842 849 857 858 858 857 857 859 859 860 859 859 860 858 858
831 831 830 829 830 829 830 830 830 830 829 829 828 828 827 826 826 825 825 824 823 823 822 822 821 821 825 827 827 827 827 826 826 825 824 824 823 823 824 823 824 824 823 823 822 822 823 821 822 830 839 842 843 843 846 850 852 858 853 852 866 862 851 854 861 861 855 859 864 859 854 844 838 840 848 857 858 858 855 854 857 857 858 858 857 858 856 856
832 831 831 830 830 830 830 830 830 830 829 829 828 828 827 826 825 825 825 824 823 822 822 822 822 822 827 829 827 827 828 827 827 827 826 826 824 824 825 824 826 825 824 825 823 823 822 823 833 842 842 842 844 842 845 850 851 860 856 849 858 859 855 853 856 865 859 857 862 858 852 843 838 842 851 858 857 858 855 853 855 855 855 856 855 856 855 854
833 832 832 831 831 831 831 830 830 830 829 829 828 828 828 826 825 824 825 824 823 823 822 823 823 823 827 828 828 829 830 830 828 828 827 826 825 825 825 825 826 825 825 824 822 824 824 830 841 844 844 849 852 845 844 849 846 853 861 856 858 861 859 853 851 862 864 857 857 858 857 845 836 841 850 856 856 857 855 850 851 852 853 854 854 854 853 853
833 833 832 832 832 831 831 831 831 830 830 829 828 828 827 827 826 825 825 824 823 823 823 824 824 827 832 830 831 833 832 830 829 829 827 826 827 826 826 826 826 826 825 825 825 828 830 837 843 841 845 850 851 845 842 848 847 849 855 852 857 863 862 857 853 859 862 859 857 859 858 845 837 840 845 851 855 854 851 848 848 849 850 851 852 852 850 850
834 833 833 833 832 831 831 831 831 830 830 829 828 827 827 826 826 825 824 824 825 827 829 830 830 833 836 834 834 833 831 831 830 829 828 828 827 827 827 826 827 827 827 829 829 835 838 838 840 839 843 848 851 850 846 852 856 855 859 859 857 857 858 858 856 861 866 860 856 858 855 844 839 838 838 844 852 851 848 847 848 847 849 850 850 849 848 848
834 834 833 833 832 832 832 831 830 830 829 828 827 827 827 827 829 829 827 828 831 834 836 837 836 836 836 835 834 832 831 832 831 831 830 828 828 828 828 828 829 829 834 837 835 844 846 837 840 844 847 854 858 861 860 862 866 865 866 865 863 862 858 856 856 864 871 859 848 852 852 842 837 835 833 840 849 850 847 847 845 844 845 846 846 845 844 842
835 834 834 833 833 832 832 831 830 829 828 827 826 827 828 829 831 832 832 834 836 837 837 837 837 835 834 835 835 833 833 832 832 832 830 830 829 828 830 831 831 832 843 851 845 847 845 837 845 852 856 861 863 869 868 866 869 868 867 863 864 867 858 854 860 865 869 860 845 848 849 834 827 829 830 838 844 842 840 841 840 840 841 841 842 841 839 837
835 835 834 834 833 832 832 831 830 829 828 827 826 827 829 829 831 831 832 834 836 837 837 836 836 835 835 835 835 835 835 834 833 832 831 831 829 829 833 834 834 838 848 851 844 843 842 841 850 860 866 868 869 873 868 864 868 868 869 864 859 863 857 854 863 867 867 859 843 845 849 832 820 823 827 833 835 832 833 835 834 836 837 837 837 836 836 836
835 835 835 833 833 833 832 831 830 829 828 828 828 828 829 830 831 831 831 833 835 836 836 835 835 836 835 835 836 836 835 838 837 834 833 831 831 836 835 835 839 843 846 845 841 839 839 845 859 868 868 863 863 868 865 863 866 865 866 860 853 859 858 847 855 865 864 861 853 853 858 842 822 817 820 830 835 831 833 834 834 836 834 832 834 834 835 833
836 836 834 834 833 832 832 831 830 830 829 829 829 829 830 830 831 831 832 836 838 836 836 837 837 837 837 836 837 836 837 841 841 837 835 833 836 840 838 842 844 842 848 852 846 841 844 856 869 871 866 861 859 863 864 859 857 862 863 856 849 855 858 852 859 867 860 861 865 859 849 832 818 811 808 825 839 834 834 834 831 833 832 832 833 831 830 828
836 835 834 834 833 832 832 831 831 831 830 830 830 830 831 830 832 831 832 840 841 837 837 837 837 838 837 837 837 838 839 841 842 839 838 837 838 839 843 849 845 840 852 860 850 843 850 866 870 864 862 864 860 858 861 857 852 855 857 857 855 854 858 860 866 868 853 848 860 858 836 814 811 808 801 817 832 827 832 834 827 827 829 831 831 826 824 824
836 835 835 834 833 833 832 831 831 831 830 831 831 831 832 831 833 831 834 844 843 837 838 838 838 838 837 838 838 839 839 839 841 841 839 839 839 839 842 849 848 845 852 857 851 848 857 868 868 860 858 861 859 856 861 863 855 850 854 863 864 859 860 863 868 868 851 843 857 863 845 825 816 804 803 822 825 817 824 827 823 824 825 826 826 821 819 819
836 836 835 833 833 832 831 831 831 831 831 831 831 832 832 832 833 832 837 849 846 839 840 839 839 838 838 841 841 839 839 840 841 840 841 839 839 840 839 843 846 847 854 853 844 850 859 862 863 860 857 857 855 853 858 864 854 848 861 868 862 861 863 866 871 869 863 859 861 865 858 846 831 810 816 832 819 806 810 811 813 817 819 820 820 817 816 814
837 836 834 834 833 832 831 831 831 832 832 831 832 833 833 833 833 833 841 851 846 840 840 840 839 838 839 841 842 842 842 843 840 839 842 840 839 840 838 843 844 845 857 850 836 848 859 854 854 856 855 855 852 851 858 862 854 852 867 869 864 868 869 872 874 872 880 870 847 855 861 848 830 811 820 833 815 802 801 797 800 803 807 812 813 813 812 810
838 836 835 834 833 832 832 831 832 832 832 832 833 833 833 834 833 836 847 852 844 840 842 840 838 840 843 841 842 846 845 844 843 840 842 841 839 840 840 847 850 848 856 852 840 849 858 855 857 854 851 851 850 855 860 858 855 860 871 871 872 878 876 879 878 872 880 863 834 846 859 843 823 803 808 820 809 800 794 792 796 796 801 807 808 809 807 807
838 836 836 834 833 833 832 832 833 832 833 833 833 834 834 833 836 846 855 850 843 843 843 840 841 845 846 842 842 847 846 845 849 846 842 843 841 843 847 852 852 848 851 853 848 852 861 863 864 857 852 853 855 863 867 862 861 866 867 863 864 874 878 880 882 877 867 846 836 854 861 849 829 802 796 803 798 793 790 791 795 795 797 800 803 806 805 805
839 837 836 835 834 834 833 834 833 833 834 833 834 835 833 837 846 854 855 848 844 845 843 843 849 850 849 846 844 847 847 848 852 847 841 845 844 843 847 846 845 846 845 845 847 853 860 858 858 859 859 860 857 860 870 871 869 866 859 854 851 857 866 867 870 871 851 829 842 864 864 856 839 807 792 795 798 801 798 793 791 791 792 793 796 801 804 805
839 838 837 836 835 834 833 834 834 835 835 834 835 834 836 847 852 850 849 845 842 846 846 849 854 853 854 853 849 852 853 849 852 853 851 853 850 848 853 850 847 843 838 842 844 845 849 852 857 859 860 863 854 850 862 868 867 860 854 854 849 846 850 844 844 853 841 832 853 869 859 850 834 807 795 796 796 800 803 798 793 793 793 791 794 799 802 804
839 839 837 837 836 835 835 835 835 835 834 835 836 835 843 852 852 852 851 843 844 852 855 855 858 859 856 849 849 859 858 851 853 857 859 860 853 854 864 867 863 849 841 850 848 837 839 850 858 854 853 862 856 846 848 852 856 854 851 852 848 848 850 841 842 851 842 838 861 875 862 841 818 799 794 793 789 792 800 802 800 801 800 797 799 802 803 803
840 839 838 837 837 836 836 836 836 836 836 836 836 840 850 852 851 857 852 844 852 859 859 861 859 857 854 849 855 863 854 850 857 856 854 854 848 847 855 864 869 859 850 853 852 846 839 837 847 851 852 859 858 853 851 850 854 860 863 861 852 849 848 841 842 840 834 844 866 873 854 825 802 791 793 794 792 796 800 804 808 807 807 808 807 805 802 799
840 839 839 838 837 837 837 837 836 836 836 837 840 848 854 850 849 853 849 848 857 857 858 865 858 848 849 853 861 866 855 850 857 855 851 851 846 845 848 854 864 863 852 846 850 858 848 836 849 862 862 861 857 861 865 855 853 867 874 864 853 851 847 850 861 863 864 867 866 860 842 821 804 791 794 800 796 798 801 805 808 803 804 811 806 800 799 796
839 839 839 838 838 837 837 837 837 837 837 839 845 853 852 847 848 852 853 856 858 854 853 857 853 845 845 850 855 863 862 856 855 851 851 855 851 851 855 856 864 865 855 848 849 854 847 839 855 865 861 865 863 863 867 856 849 865 868 854 859 869 856 852 870 888 893 871 848 843 830 817 809 790 787 795 788 786 792 796 799 796 800 805 799 794 795 793
839 839 839 839 838 838 838 837 837 837 837 841 847 852 852 851 854 858 860 862 862 860 852 846 848 849 847 848 848 856 860 857 857 850 847 853 850 850 856 859 867 869 863 861 854 853 850 841 854 864 856 863 872 866 865 866 860 859 858 854 866 873 864 861 864 868 874 858 839 840 832 820 813 793 783 788 782 781 786 789 793 791 792 794 790 790 792 789
839 839 839 839 838 838 838 837 838 837 839 845 849 852 855 855 861 865 866 866 863 859 852 845 848 853 853 850 847 856 859 850 852 853 847 847 847 850 854 856 867 872 872 870 856 856 860 843 848 869 862 860 872 864 856 866 870 861 859 864 864 856 853 865 865 852 854 854 839 836 843 839 823 800 788 786 785 786 788 791 792 787 787 789 788 789 789 787
839 839 839 840 839 839 838 837 839 838 841 848 847 849 856 858 864 872 870 868 863 856 851 850 854 856 856 855 849 856 862 852 851 854 848 845 846 851 856 856 863 872 875 873 860 858 864 848 843 864 869 863 863 858 849 855 868 869 866 869 869 863 858 863 868 860 853 852 843 834 828 818 811 805 795 788 789 791 790 791 791 789 790 791 790 790 788 786
840 840 840 840 839 838 839 838 839 839 842 852 852 852 860 861 864 873 874 870 865 858 854 854 857 854 853 859 858 858 864 861 857 854 849 850 848 848 859 862 860 868 874 873 866 862 864 856 846 854 867 862 850 850 848 845 854 862 862 864 867 871 873 868 871 873 860 850 854 850 820 793 800 809 797 788 790 789 791 793 793 792 792 792 792 791 788 786
841 841 840 841 839 839 840 837 845 853 849 853 858 859 863 863 864 871 875 874 869 865 863 859 858 856 851 855 859 859 862 861 862 858 851 853 848 845 863 872 865 867 869 864 864 863 861 860 854 851 854 845 839 854 862 855 855 854 850 854 857 861 865 860 860 873 875 862 856 856 830 794 792 801 791 788 791 790 795 799 797 796 794 792 791 789 787 785
842 843 841 841 838 839 839 841 861 872 856 851 860 864 866 867 867 869 872 873 869 867 868 865 862 861 856 854 858 861 858 856 861 859 851 853 851 848 867 881 875 870 865 860 865 869 867 866 862 853 847 844 850 867 871 866 865 862 857 861 862 859 855 847 846 858 872 873 870 877 857 807 789 797 792 790 796 796 799 802 799 798 794 792 790 787 786 783
843 842 840 840 840 840 840 845 859 864 856 861 870 870 870 870 867 868 869 868 866 866 865 862 861 860 859 859 860 859 856 853 854 854 852 854 857 864 879 885 879 871 865 862 865 870 868 865 861 851 844 849 861 870 872 870 867 860 860 868 867 861 857 855 858 862 863 862 864 873 853 804 787 800 797 794 800 800 799 800 797 795 792 790 789 786 784 781
846 844 842 841 839 839 841 845 849 849 854 866 868 865 869 871 867 866 865 863 864 864 860 859 861 860 861 865 862 858 857 851 848 853 858 857 860 876 889 887 880 872 867 867 868 867 863 859 859 852 842 841 845 849 854 859 862 856 858 869 869 866 869 869 873 877 865 850 849 853 833 796 788 798 793 793 800 799 798 799 796 794 791 788 787 784 781 778
845 844 844 843 840 841 846 851 850 847 854 861 859 860 864 865 867 868 865 864 867 867 860 859 864 864 864 867 863 861 863 855 849 857 863 861 864 879 887 885 882 877 875 881 879 871 864 863 862 853 848 846 837 833 838 845 855 856 856 866 869 867 867 859 860 868 859 851 853 846 821 794 789 795 794 796 801 800 800 799 795 793 790 787 786 782 779 777
845 844 845 844 843 846 853 862 857 849 853 855 853 860 862 857 863 871 869 865 867 870 866 863 867 865 864 864 859 857 863 863 861 862 861 857 860 876 885 884 884 883 882 885 882 874 872 873 868 857 853 850 837 836 849 855 855 851 849 855 862 866 867 862 862 860 849 851 852 836 821 811 804 803 803 802 804 804 803 802 797 793 790 789 788 783 780 778
847 848 849 847 845 847 852 860 858 852 856 854 850 857 860 856 860 866 867 866 867 870 867 865 866 860 856 858 854 853 862 867 867 864 862 861 865 876 886 885 884 886 885 883 880 876 871 868 869 866 859 853 847 848 857 862 858 851 849 850 854 863 868 867 861 846 837 847 841 821 822 825 813 806 806 806 808 808 806 804 798 793 792 790 786 782 780 777
849 851 857 855 849 848 849 854 858 857 858 859 858 859 858 855 855 854 859 867 870 869 863 859 861 859 856 857 852 851 859 861 860 860 861 866 869 868 874 882 886 887 884 880 879 877 870 865 871 874 862 856 859 858 857 861 859 854 852 851 854 862 865 860 852 841 842 848 834 814 819 824 815 810 811 812 812 811 807 803 798 793 791 788 784 782 779 776
853 853 859 859 854 854 858 862 864 859 856 858 859 858 856 852 850 852 860 864 861 867 865 851 850 858 861 860 855 852 853 850 850 855 858 863 867 863 859 865 879 887 883 876 878 880 871 864 875 882 871 858 856 856 858 861 858 855 854 853 855 858 860 859 853 848 851 849 836 827 829 829 823 818 817 815 813 811 807 803 797 791 789 786 783 781 779 776
851 849 854 857 856 861 867 867 863 856 857 860 854 854 858 853 848 854 862 857 849 858 866 853 849 860 866 865 858 851 851 850 848 854 859 860 863 863 856 855 867 882 882 877 880 882 872 866 878 884 870 853 848 850 855 859 860 858 853 849 852 853 855 860 859 854 855 850 842 841 841 835 826 820 818 815 811 809 806 801 795 790 787 787 784 781 779 776
849 849 851 850 852 861 864 864 863 854 851 855 850 851 856 852 852 854 855 857 854 853 858 855 852 861 869 868 861 852 855 860 856 857 862 859 857 859 857 858 865 871 876 880 881 878 874 872 878 879 864 849 848 850 852 856 858 856 847 839 841 842 842 847 850 849 847 841 837 841 840 831 822 817 815 813 810 810 807 802 798 792 786 786 785 783 781 777
849 849 851 849 850 860 862 860 862 854 848 852 853 853 852 852 860 859 849 855 864 861 861 861 857 858 860 859 857 857 861 866 864 864 867 864 863 864 863 865 868 865 869 879 883 884 882 872 871 876 864 849 850 856 857 852 839 833 836 833 831 834 836 839 840 839 840 839 836 835 831 824 820 819 817 813 810 809 806 802 800 795 788 786 785 783 781 777
Wind_Speed
10 10 9 8 7 7 7 8 8 8 8 5 3 2 1 1 1 1 2 3 3 4 4 3 3 4 4 4 5 5 6 9 16 22 18 12 16 14 12 11 12 14 12 10 8 4 4 9 12 11 7 5 5 3 4 4 3 5 4 4 3 4 4 5 7 7 3 3 4 4 2 7 4 2 1 2 6 4 3 4 3 5 7 4 5 14 27 28
10 9 9 8 7 7 7 7 6 6 7 5 3 1 0 1 2 2 3 3 3 4 3 3 4 4 5 4 5 6 6 6 13 20 16 14 16 13 10 10 11 12 11 10 9 6 5 5 8 9 7 3 4 4 3 3 5 4 3 4 3 6 4 4 7 6 2 3 4 2 3 5 4 5 3 2 1 2 3 2 4 5 6 7 11 20 24 25
9 8 8 7 7 6 6 6 5 5 5 5 4 2 1 1 2 2 2 2 2 5 6 6 7 6 6 6 7 7 6 5 8 11 15 16 14 11 9 9 10 11 10 9 8 6 4 3 4 6 5 4 3 3 4 4 3 2 4 3 5 6 2 2 5 6 4 4 6 3 3 1 1 3 2 4 3 1 2 4 0 0 2 5 8 16 20 22
8 8 7 7 7 6 6 5 4 3 4 4 3 3 3 3 3 2 2 2 1 3 6 7 8 6 6 7 8 6 4 6 4 8 15 16 13 12 9 8 10 10 9 8 6 5 5 6 7 7 5 4 4 4 4 3 1 2 3 3 6 4 2 3 5 5 3 4 7 5 4 1 2 2 1 6 5 3 6 7 6 7 9 9 8 13 18 19
8 8 6 6 6 6 5 4 3 2 3 3 3 4 5 6 5 4 4 4 4 4 6 8 7 5 6 8 5 3 1 4 4 10 17 15 13 11 8 9 10 9 8 6 4 5 5 5 7 7 5 3 5 5 3 3 2 4 2 2 5 4 3 4 4 4 4 4 6 7 5 3 2 1 3 8 6 5 6 6 7 7 11 14 13 16 16 16
8 7 6 6 5 5 5 4 4 3 3 3 4 5 6 6 5 5 5 5 5 5 7 8 5 2 5 10 6 1 4 2 6 13 16 14 12 11 8 9 11 10 6 2 3 5 4 6 7 5 4 3 3 3 1 4 2 4 1 1 2 3 3 2 2 3 5 6 7 7 4 3 4 1 2 8 8 6 4 6 8 7 13 17 16 17 15 15
8 7 6 6 6 5 6 5 4 3 4 4 4 5 5 6 4 1 2 3 4 5 7 7 4 3 1 7 6 5 5 1 9 15 15 13 11 11 8 7 10 8 2 3 4 4 4 7 6 3 5 4 1 2 2 5 5 6 2 1 1 0 1 2 3 3 5 6 6 5 5 4 4 3 1 5 8 4 4 5 7 10 15 17 14 14 15 16
6 6 6 6 6 6 5 5 4 4 4 4 3 2 5 9 7 5 3 1 2 4 9 7 4 5 4 4 3 5 4 2 11 15 14 12 10 12 8 5 9 5 5 8 4 4 4 6 4 4 4 2 3 2 3 5 6 5 3 2 1 2 3 4 6 5 4 3 2 5 5 2 4 3 1 7 8 3 3 2 4 10 13 13 11 12 14 15
5 5 6 6 5 5 5 4 4 4 5 5 3 1 2 8 7 6 5 4 3 5 10 8 1 5 4 2 5 3 3 4 12 16 14 12 9 9 6 8 10 8 10 10 5 5 2 2 3 4 4 2 4 3 3 4 2 2 4 3 3 3 2 3 5 5 3 2 1 4 2 3 2 1 3 7 6 1 2 3 5 8 10 10 9 11 14 14
6 7 7 6 5 5 4 4 4 4 5 6 4 3 3 6 5 5 4 3 4 5 10 11 6 1 2 1 7 3 3 6 12 16 13 10 7 6 10 13 13 12 11 10 9 6 2 5 6 6 7 3 3 3 3 3 1 3 6 6 6 2 2 2 2 1 1 1 1 2 2 3 2 1 4 6 5 4 4 4 4 6 9 9 8 10 14 14
8 9 8 6 5 5 5 4 4 4 5 5 4 4 4 6 5 4 3 2 3 4 7 10 10 8 6 6 6 3 5 8 12 16 12 8 6 9 13 14 14 15 11 10 10 6 4 8 9 6 4 2 3 4 3 1 2 3 6 6 6 5 2 3 2 1 2 1 3 4 2 3 2 2 6 6 5 6 6 6 6 6 8 8 7 8 11 14
10 9 8 6 5 5 4 3 3 3 4 4 4 4 4 5 4 4 2 1 2 3 5 8 10 5 7 9 5 2 6 8 12 14 9 5 7 9 11 11 12 13 10 8 6 4 6 9 10 7 1 4 4 2 2 2 3 2 4 4 4 7 3 2 2 0 2 0 2 4 1 4 4 7 7 3 6 6 6 7 6 7 7 6 7 6 9 14
10 9 7 5 4 3 2 1 1 1 2 2 2 3 4 5 4 4 3 3 3 4 6 7 9 4 5 5 1 2 6 8 12 9 4 4 6 8 9 10 10 10 10 10 7 5 8 9 12 9 3 6 3 1 4 4 3 1 3 3 2 7 5 4 1 1 1 1 2 2 3 6 7 11 7 3 7 7 6 8 7 7 6 6 6 6 7 12
9 8 5 4 3 2 1 0 0 1 1 1 2 4 5 6 5 4 4 4 4 5 6 5 6 5 5 1 1 3 6 6 11 10 7 5 4 6 8 9 9 8 9 11 11 9 10 11 16 11 3 5 3 2 5 6 4 1 1 2 2 2 5 5 1 1 2 1 1 4 3 8 8 10 7 6 8 8 8 9 8 7 7 6 6 6 7 11
8 5 5 5 4 2 1 1 1 1 2 2 4 5 6 6 5 4 2 2 4 4 4 3 4 4 5 2 1 3 6 7 12 14 11 7 5 5 5 6 8 9 10 10 11 12 10 10 12 7 1 2 4 5 4 4 4 3 1 3 3 1 5 7 3 1 2 1 2 4 3 9 9 9 5 6 7 8 9 9 8 8 8 7 7 8 7 10
6 5 6 5 4 3 2 3 2 2 1 3 4 6 8 8 4 2 1 2 5 4 2 3 4 5 4 1 1 3 6 7 12 13 9 8 7 4 2 4 5 6 8 8 9 10 11 10 6 3 2 3 5 5 4 4 4 3 1 2 3 2 3 6 2 1 0 1 0 3 4 7 7 5 3 6 7 8 9 10 9 9 9 8 7 7 7 8
5 4 6 5 4 4 3 3 2 1 2 3 4 8 7 8 5 1 2 2 5 4 4 4 4 5 3 2 2 3 5 7 12 11 7 7 7 5 2 1 2 2 4 6 7 7 10 8 2 1 4 4 3 4 4 3 4 4 3 1 3 2 2 4 3 3 4 2 2 4 5 11 11 5 4 7 8 8 10 12 11 10 9 8 8 7 8 9
3 3 5 4 3 3 3 3 1 2 3 6 11 11 5 4 6 2 1 2 3 2 4 5 5 4 2 4 2 4 8 9 11 11 8 5 6 7 5 3 1 2 3 6 7 7 6 4 2 1 4 4 3 5 2 3 4 2 1 2 3 3 2 3 4 2 3 2 4 3 6 15 15 9 7 8 9 10 13 12 10 10 9 8 8 8 10 9
4 4 4 2 1 2 3 3 4 6 9 12 12 10 5 2 3 4 5 6 2 1 1 2 3 2 2 4 4 8 9 7 8 10 9 6 4 4 6 6 3 2 3 2 4 6 3 3 4 2 0 2 1 4 6 6 6 4 4 3 3 4 4 5 6 4 1 2 6 7 9 14 14 11 9 8 9 11 12 10 8 9 8 8 8 9 10 10
4 4 3 2 3 5 6 8 9 10 11 10 7 4 2 1 3 4 7 8 2 2 1 2 1 1 1 3 6 10 6 2 4 10 12 9 5 3 4 7 6 6 5 0 3 4 4 4 1 4 5 4 4 4 5 5 5 5 4 3 4 4 5 6 4 5 1 1 7 6 7 14 14 11 11 7 7 10 12 11 11 10 9 9 9 11 12 12
4 5 4 4 4 6 7 9 10 10 10 7 3 1 1 1 1 1 2 4 0 1 0 3 3 0 1 2 7 9 3 0 3 10 15 11 4 1 3 5 6 5 3 2 3 3 5 4 3 6 6 5 3 4 5 5 5 4 4 2 3 3 6 6 2 4 2 1 5 2 7 17 15 10 9 6 8 12 14 13 13 13 11 9 10 13 13 11
5 5 5 5 5 5 7 7 7 8 7 4 1 4 3 3 4 3 2 1 1 1 0 1 1 2 3 1 6 7 3 3 4 9 16 12 5 1 2 5 5 0 3 3 2 5 5 1 4 4 5 5 5 4 4 4 5 3 2 1 3 4 5 5 2 3 3 1 5 5 8 17 18 10 7 8 10 11 10 12 12 11 11 10 11 12 11 11
5 5 5 5 5 5 6 7 7 5 4 3 5 7 6 5 6 2 2 2 1 2 2 3 3 3 4 2 5 6 5 3 2 7 15 12 4 2 2 5 4 1 4 4 1 1 1 3 4 2 5 6 5 4 6 5 3 2 3 2 4 3 2 4 4 4 3 3 5 6 6 13 16 9 5 5 7 6 5 7 8 7 10 12 10 9 10 12
6 6 6 6 6 6 6 6 5 4 6 7 9 9 7 6 4 1 2 2 2 2 2 1 1 0 1 2 6 5 3 1 1 6 14 9 2 1 3 4 4 4 3 2 5 5 2 3 1 5 5 5 3 2 5 3 2 2 4 5 4 3 2 4 4 6 6 3 2 5 5 7 8 6 5 4 3 6 4 5 9 8 10 9 8 9 11 13
7 7 7 7 6 6 5 4 2 4 6 8 8 7 5 4 2 1 3 3 2 3 2 1 0 1 1 2 6 2 2 1 1 4 9 7 2 1 2 2 3 3 2 1 5 4 1 2 2 4 5 5 3 2 2 4 2 4 4 6 5 2 1 3 5 7 5 4 2 3 4 5 5 5 7 4 4 6 3 5 11 10 8 7 8 12 13 12
9 9 9 9 7 6 4 2 1 3 3 4 5 4 4 4 3 2 4 4 2 4 3 0 0 1 1 4 6 1 2 2 3 3 6 6 1 2 2 1 2 2 4 3 3 2 1 1 2 4 4 5 3 2 4 4 3 3 3 4 5 4 3 5 4 3 2 4 2 3 0 5 6 6 8 4 6 8 4 6 11 10 8 8 9 12 11 11
11 10 10 10 7 6 5 1 1 1 1 0 3 3 3 3 2 1 3 5 3 2 1 1 0 2 1 3 4 1 0 4 3 3 5 5 3 2 1 2 0 1 2 2 0 2 2 3 3 4 5 4 2 2 4 6 5 2 3 3 3 4 5 4 1 2 2 3 4 2 3 3 6 6 5 3 5 9 7 8 10 9 10 10 11 12 12 13
11 11 11 10 8 7 4 1 1 1 1 1 3 2 1 1 2 1 4 3 2 0 2 1 1 3 2 2 4 3 1 3 1 1 4 6 3 2 2 2 5 3 0 3 3 4 2 3 3 4 4 2 3 4 6 7 2 5 4 2 2 2 2 2 4 3 1 3 5 3 2 1 6 6 3 3 4 8 9 9 9 9 10 10 11 12 13 13
11 12 11 10 8 5 4 2 1 0 1 1 3 1 1 2 2 3 5 1 2 1 1 1 1 2 4 4 4 4 2 2 2 4 5 5 4 4 3 2 6 5 1 2 4 4 1 2 4 6 4 4 5 3 6 7 2 3 4 3 3 3 3 3 4 2 2 2 5 5 1 1 5 7 3 2 2 6 8 8 8 8 8 8 9 11 11 10
11 11 12 10 6 4 3 3 2 0 0 2 3 1 2 2 3 6 2 2 1 1 0 1 1 2 5 4 4 5 3 2 3 4 4 2 4 7 4 2 5 6 1 4 2 3 1 1 2 3 3 4 4 2 3 6 2 1 3 3 3 4 4 3 2 3 2 3 6 5 1 2 3 6 4 3 4 5 5 5 7 7 8 8 8 9 9 8
12 11 11 11 6 4 3 2 2 2 3 3 2 1 2 3 5 5 1 4 0 2 1 2 2 4 6 2 2 4 4 4 5 4 3 3 5 7 4 1 3 3 3 4 1 3 3 1 1 1 1 3 4 2 1 1 2 3 2 3 3 3 3 3 4 3 2 4 5 4 2 2 2 7 5 5 6 5 5 5 7 8 8 9 8 7 7 7
12 11 11 10 7 6 3 2 3 4 3 2 1 2 4 2 2 1 3 3 2 2 1 1 2 3 4 2 1 3 3 3 4 4 2 2 3 3 2 2 1 2 4 2 2 5 3 3 2 2 0 2 3 0 3 3 3 4 3 4 4 4 4 3 3 1 2 5 3 1 2 1 5 9 9 10 11 8 8 8 9 9 9 9 8 7 6 5
11 9 9 10 7 6 5 4 3 3 3 2 2 5 6 4 2 3 2 3 2 2 1 1 2 1 1 2 2 3 2 1 3 3 1 1 3 2 1 3 2 1 2 2 1 4 4 3 2 1 1 0 3 2 1 1 2 2 1 2 2 1 3 4 4 3 4 4 2 2 2 3 6 7 9 12 12 9 8 8 8 8 9 9 8 7 7 7
10 8 7 7 7 4 3 3 2 3 2 1 4 5 5 0 4 3 2 3 2 2 2 1 2 2 1 1 2 2 0 1 2 3 2 2 2 1 2 2 0 2 2 1 0 0 1 4 1 2 1 1 1 3 3 3 3 1 2 4 3 3 2 4 4 3 6 5 3 3 1 3 3 4 6 9 9 7 5 5 6 7 8 7 8 9 9 10
9 7 5 5 6 4 2 1 1 1 1 2 6 5 2 3 4 2 3 4 1 2 1 0 2 3 3 2 2 1 0 1 2 2 2 1 1 2 1 2 1 2 3 1 2 1 1 5 3 1 2 1 1 1 2 4 2 0 2 4 1 4 4 2 3 4 2 4 4 2 3 5 4 7 7 4 5 6 5 4 5 8 7 5 7 9 9 9
8 5 3 5 6 4 2 1 1 0 1 5 6 3 4 4 2 2 3 1 0 1 1 3 3 3 4 4 3 3 1 1 2 3 1 1 2 3 2 2 2 2 3 2 2 1 0 4 3 3 2 2 1 2 1 2 1 1 1 2 4 3 5 2 2 1 3 2 4 2 3 5 4 7 7 5 6 6 4 5 5 7 7 5 7 9 8 9
7 2 2 5 7 4 3 2 1 1 3 7 4 3 5 3 1 3 2 0 1 1 2 2 2 1 2 3 3 4 3 2 2 3 1 2 2 3 2 1 1 2 2 2 2 1 1 4 4 1 1 1 1 1 2 2 2 3 2 4 2 2 4 3 1 4 3 2 5 1 4 5 2 5 6 8 7 7 6 7 7 8 7 6 8 9 9 10
5 1 2 6 7 4 3 2 1 1 4 6 1 4 3 2 1 1 1 1 1 1 3 1 1 0 2 1 3 3 3 3 2 2 1 2 1 3 3 1 1 1 1 1 0 0 2 2 6 1 1 3 2 2 2 3 2 3 3 2 2 2 1 1 1 1 1 3 5 3 4 3 4 5 5 5 5 7 8 8 8 9 8 7 9 9 11 10
4 1 1 6 6 4 3 1 1 4 5 3 2 3 1 1 1 0 1 0 1 2 1 3 1 1 2 3 2 2 2 2 1 1 1 1 2 1 3 2 1 1 2 2 2 1 2 0 4 2 1 3 3 1 2 1 3 3 0 1 2 2 3 1 1 2 2 2 4 5 5 3 6 6 3 5 8 7 8 8 7 9 8 8 8 9 10 10
3 1 1 6 6 4 3 2 3 5 4 2 4 2 1 2 1 1 1 1 1 1 1 2 1 0 3 3 2 1 1 1 2 1 1 1 2 1 1 1 2 2 1 2 1 0 2 1 4 4 3 1 1 2 5 5 2 2 1 1 1 0 1 0 1 2 3 2 2 3 7 6 4 4 4 7 9 7 7 7 7 8 9 9 9 9 10 10
3 2 3 5 5 1 3 5 4 3 2 2 2 1 1 0 0 2 3 1 0 0 1 3 3 2 2 2 2 2 1 1 2 1 2 2 1 1 2 2 1 2 1 2 1 0 1 2 3 3 3 3 4 3 3 5 5 4 4 4 3 3 3 0 3 1 2 2 4 2 8 9 2 4 5 6 6 6 6 6 7 9 11 11 11 11 11 11
4 2 3 5 4 1 3 4 1 1 2 1 1 1 1 1 1 1 2 1 1 0 1 1 2 2 2 1 1 2 2 1 2 2 2 3 3 2 2 3 2 1 3 1 2 2 2 3 1 4 5 4 4 2 1 2 4 4 2 2 3 3 4 4 4 3 0 2 2 3 5 6 1 3 5 4 3 5 6 6 8 10 11 12 12 12 12 12
2 1 1 7 6 1 4 3 2 2 0 2 2 1 1 1 1 0 1 1 0 0 1 1 2 2 2 2 1 2 3 2 3 3 3 3 2 2 1 4 4 1 2 1 1 0 1 2 1 4 5 3 3 3 3 2 3 1 1 1 3 2 3 5 5 3 2 3 2 1 5 6 1 2 4 3 2 6 7 8 10 11 11 11 12 12 12 12
2 3 1 7 7 2 3 0 1 2 3 2 2 1 1 1 2 1 1 2 1 1 1 1 2 1 1 1 1 2 3 1 2 2 1 2 2 1 2 3 3 2 2 0 1 0 1 0 1 3 6 6 5 5 5 4 1 2 3 1 2 4 5 3 2 2 2 5 7 4 9 8 3 3 6 7 8 11 11 11 12 13 12 12 12 12 12 13
1 1 2 5 7 5 3 3 4 2 2 1 2 2 1 0 1 2 2 2 1 2 1 1 1 1 1 1 1 0 1 0 2 2 2 1 3 2 3 3 3 2 1 2 1 1 2 1 1 0 3 5 6 6 4 2 2 2 2 2 3 4 5 3 1 2 3 4 6 5 9 11 8 10 15 14 13 13 14 14 15 15 14 13 13 14 14 13
2 1 3 5 6 6 3 1 4 4 2 1 1 2 0 1 2 0 2 2 1 2 1 1 0 1 1 1 0 1 2 1 1 2 1 2 4 2 2 2 2 2 2 3 3 3 1 1 2 5 6 6 8 7 2 1 3 6 6 5 5 4 5 4 3 2 4 2 2 7 10 14 16 15 15 13 13 14 15 15 16 16 15 14 13 13 13 13
1 1 0 2 3 4 4 3 4 3 1 2 1 1 1 2 3 1 1 1 0 1 0 0 1 2 2 2 1 1 2 1 2 0 2 3 3 3 0 2 3 4 4 3 2 3 3 2 3 6 8 10 11 10 5 2 5 10 10 8 5 5 5 6 6 10 4 2 6 10 7 9 14 15 14 14 15 14 14 15 16 15 14 13 13 14 15 14
1 1 1 1 1 1 2 2 2 4 2 0 1 1 0 1 2 2 2 1 1 0 1 0 2 4 5 4 2 1 1 2 1 2 2 1 2 3 3 2 2 4 4 2 2 3 5 3 4 4 6 11 11 11 9 6 7 8 10 11 7 6 8 10 13 14 5 2 12 15 10 11 14 15 16 15 14 14 14 15 15 15 14 14 14 15 15 15
2 1 1 2 0 2 1 1 2 5 2 1 1 1 2 2 4 4 2 1 2 1 2 2 5 4 4 3 2 1 2 1 2 4 2 1 1 1 2 1 1 3 2 2 2 1 4 3 3 2 5 11 11 11 9 6 6 6 8 10 8 8 11 11 12 13 7 9 16 18 17 17 14 14 15 13 11 12 11 13 15 16 15 15 17 16 14 15
1 2 1 2 2 1 1 2 2 3 1 1 0 2 2 4 5 4 1 3 1 2 2 3 4 2 2 4 4 3 6 5 1 3 3 2 2 2 2 2 2 2 2 1 1 1 1 2 1 3 3 9 9 7 5 3 5 7 9 10 7 6 7 7 8 8 6 9 13 13 13 12 9 9 10 10 11 11 12 15 17 18 17 16 16 14 15 18
1 2 2 3 1 1 1 2 2 3 0 1 1 2 1 4 6 3 1 2 2 3 5 5 3 1 2 2 4 7 7 6 4 5 6 4 3 3 2 2 5 4 1 1 0 1 1 2 2 5 3 7 4 5 7 7 6 5 8 9 5 2 3 4 5 6 6 7 9 8 6 7 7 8 10 12 12 12 13 15 16 17 18 16 13 13 16 18
2 1 2 3 0 2 1 1 2 2 1 2 2 2 1 3 3 2 1 1 2 1 4 6 5 2 1 2 6 7 6 5 5 5 4 3 1 2 1 1 5 5 4 4 1 1 3 2 1 3 1 6 4 5 8 9 6 3 4 4 2 3 3 3 4 6 7 5 5 5 5 7 9 11 13 15 14 13 13 13 13 16 17 14 12 15 17 17
Wind_Direction
24 23 19 19 21 21 26 31 35 39 48 54 57 90 120 131 90 14 343 345 346 341 330 325 326 313 330 351 358 4 10 35 50 50 47 14 355 355 353 357 358 358 3 12 21 33 27 16 9 23 62 54 10 350 22 22 39 55 82 88 132 177 197 177 178 195 165 167 193 228 184 128 166 230 168 52 45 49 39 20 5 16 22 50 114 139 148 157
23 23 18 16 15 18 22 26 32 33 44 49 48 64 354 270 284 307 315 335 14 23 14 357 354 307 304 325 320 333 332 350 37 40 26 6 1 357 356 3 359 358 6 15 22 34 44 2 353 27 52 43 351 357 28 10 45 81 109 96 184 198 192 172 169 184 178 152 165 208 175 148 180 174 150 138 32 22 71 343 347 20 36 75 116 135 147 157
21 22 19 13 9 13 15 17 29 29 32 36 39 41 10 320 295 302 313 328 59 41 29 15 5 332 310 306 301 313 315 345 31 19 4 4 3 359 2 4 358 360 4 10 15 27 82 91 38 52 57 50 3 7 35 15 36 116 108 95 220 209 188 208 175 185 208 150 134 158 162 164 214 153 153 164 164 293 198 210 199 280 190 140 139 144 152 161
18 19 19 12 5 6 5 3 12 17 14 16 19 16 3 336 307 288 280 261 265 350 4 5 2 350 331 312 299 286 305 29 23 336 356 1 1 4 4 2 357 358 359 5 17 34 95 102 67 61 65 42 345 21 45 351 12 104 98 153 203 171 124 201 189 184 193 142 138 140 123 153 216 144 147 145 143 262 244 218 195 199 188 173 174 165 163 169
14 12 15 11 2 356 352 347 346 346 341 349 357 349 337 322 297 273 261 256 273 307 335 351 356 5 17 0 333 258 353 46 340 341 357 355 1 5 3 2 354 354 357 357 23 64 89 83 61 48 56 45 350 29 49 318 66 74 27 183 174 135 123 185 175 148 125 106 118 125 148 179 147 130 164 159 177 226 230 229 217 201 178 174 177 174 173 179
10 7 12 12 3 349 340 336 337 322 314 332 348 340 334 326 298 267 253 257 278 302 325 338 338 337 37 29 27 79 100 101 332 351 354 353 2 4 7 359 353 358 1 20 59 76 71 41 54 48 51 55 12 57 30 314 54 88 31 52 162 162 145 158 126 135 122 116 139 153 170 132 110 258 198 182 211 225 239 258 245 219 181 176 172 170 177 186
12 12 21 17 6 349 336 337 334 316 311 322 344 357 17 24 13 324 243 263 288 314 336 332 310 256 320 20 27 48 86 112 342 352 352 357 1 2 12 3 2 2 18 89 68 84 76 50 72 113 80 67 86 90 356 332 39 87 110 34 329 138 93 29 62 123 131 143 186 165 131 123 159 224 112 213 240 263 294 285 237 198 173 171 171 176 185 191
22 22 22 14 3 350 337 336 325 310 307 313 340 29 54 41 38 50 65 51 5 352 353 338 268 231 269 345 35 40 39 325 344 351 352 1 4 6 11 16 20 27 72 62 75 126 96 70 112 152 83 73 145 87 356 11 35 75 131 189 63 24 26 33 57 79 109 137 191 125 124 196 198 186 187 236 253 301 330 357 160 157 156 170 180 187 191 195
25 15 4 359 352 343 334 334 320 305 302 307 320 255 23 22 26 40 56 66 42 6 5 10 242 223 256 356 77 56 332 335 351 349 354 5 9 14 33 50 40 55 72 55 70 120 113 136 174 174 133 142 116 68 1 52 33 122 125 138 98 38 7 39 60 68 89 111 104 122 128 288 218 195 254 234 227 211 77 92 135 144 157 182 190 194 194 197
6 357 351 346 339 332 329 337 323 308 301 295 294 264 291 346 5 24 49 61 27 12 17 31 49 48 240 35 69 64 329 2 353 347 357 7 15 47 61 56 49 56 64 52 58 72 92 165 175 143 124 117 87 50 4 80 138 114 102 101 81 41 329 31 85 90 84 117 99 161 218 278 296 311 259 237 191 148 128 139 171 166 180 194 195 202 200 204
349 346 342 337 335 332 335 333 321 308 296 284 276 272 298 330 349 8 30 38 9 21 22 30 38 46 74 77 85 85 355 0 347 349 356 3 39 67 61 52 49 51 51 49 52 51 87 141 145 120 103 98 85 44 20 93 104 87 109 101 36 11 23 58 107 267 320 98 115 122 185 277 324 261 236 233 179 154 156 175 192 191 201 203 202 209 207 214
343 341 336 337 342 339 340 326 315 306 291 282 271 281 312 328 339 350 355 324 334 6 10 15 11 16 70 67 84 55 0 359 348 352 351 2 53 63 59 53 49 48 49 56 45 53 113 140 119 85 64 124 101 40 84 96 77 70 96 111 343 6 18 242 152 285 348 79 161 118 305 269 206 227 243 218 164 152 167 190 204 208 216 214 211 217 215 220
344 341 338 348 358 351 350 328 319 316 299 298 293 317 334 331 337 331 315 303 299 334 347 7 7 12 81 60 53 5 358 357 352 357 9 28 60 63 61 58 52 52 57 67 58 80 131 144 107 95 98 104 108 188 104 54 51 73 54 94 330 5 332 263 111 50 75 172 222 108 297 268 228 241 250 183 159 148 182 209 213 216 222 223 220 224 225 224
348 348 359 24 37 45 47 329 321 18 27 46 36 17 351 329 320 304 296 307 299 316 336 359 13 38 77 60 251 358 349 354 2 14 32 42 74 73 70 62 55 68 72 71 72 88 123 118 97 97 77 84 122 95 48 15 29 87 25 49 43 8 287 286 11 114 138 197 339 80 266 266 266 265 243 184 169 166 199 218 215 220 224 225 225 227 234 229
355 8 42 56 54 49 338 270 254 348 35 96 70 39 2 337 309 293 292 334 338 331 349 18 13 45 76 42 274 351 353 8 10 10 16 29 60 72 79 70 64 86 84 72 79 87 98 95 80 77 49 44 69 66 35 2 20 41 339 311 350 178 268 303 318 165 171 255 31 103 239 271 274 276 242 178 174 185 210 224 218 223 225 225 231 228 236 240
12 38 51 50 40 25 334 293 276 311 82 122 64 25 9 2 332 264 181 52 18 2 31 39 18 62 92 24 339 3 3 7 3 0 4 18 34 41 60 77 77 101 92 68 81 79 59 62 64 60 109 56 62 80 52 22 355 3 59 260 278 210 287 313 326 359 5 83 355 197 236 277 268 279 257 181 185 198 217 234 225 227 229 225 232 230 237 245
18 34 32 31 31 31 16 351 304 226 164 167 346 350 3 12 6 199 184 51 24 25 74 66 32 74 82 1 359 353 341 341 351 357 4 16 26 29 21 84 72 103 90 48 54 51 31 46 77 331 59 51 67 91 55 358 296 325 23 261 258 229 262 304 311 346 21 63 255 229 230 259 261 277 259 201 196 201 221 235 227 227 231 228 233 234 238 239
353 357 9 19 32 33 24 17 10 219 239 272 306 321 319 1 25 74 203 324 335 18 72 44 31 83 34 352 344 312 317 325 344 356 2 16 32 34 35 44 17 340 8 21 32 34 17 30 64 50 34 15 32 82 118 225 225 233 258 251 297 291 237 264 274 296 20 7 262 246 250 261 267 272 252 215 198 204 223 231 230 233 232 233 236 235 238 238
332 326 341 348 336 338 334 327 312 286 290 295 297 303 284 268 16 41 43 36 10 3 97 335 18 125 249 310 310 314 318 327 351 2 5 9 13 19 31 31 27 44 46 15 9 24 32 32 49 95 169 338 63 126 163 184 167 171 199 186 221 275 265 244 255 265 351 320 267 239 249 265 271 270 258 227 198 210 231 236 239 240 235 236 237 238 240 239
339 327 317 305 302 306 303 304 310 303 303 310 299 298 307 318 356 359 27 41 73 134 136 228 184 123 301 304 327 334 329 331 8 15 13 2 348 345 9 17 24 46 57 347 322 5 70 71 87 196 202 205 202 167 136 137 136 134 143 173 213 238 272 258 264 281 210 261 262 232 254 273 269 261 255 229 192 217 234 236 240 238 236 235 234 241 240 239
352 341 321 309 306 306 306 307 315 316 317 325 310 270 163 146 44 340 6 20 269 166 91 220 192 175 301 294 341 350 356 5 355 14 14 3 3 349 325 15 40 32 10 272 282 347 60 88 202 217 199 177 163 147 115 105 106 106 144 203 260 224 256 261 249 289 314 326 269 284 309 287 280 264 246 202 185 220 225 224 235 234 235 238 235 243 242 246
357 350 335 323 314 311 324 330 329 326 331 344 68 105 112 133 120 127 127 87 272 226 15 300 105 342 314 301 353 2 48 38 336 357 5 2 24 34 310 41 76 107 347 354 327 4 40 136 225 213 164 113 75 97 95 88 101 88 118 150 280 248 271 292 304 318 345 325 282 337 332 291 287 279 238 200 202 225 223 220 233 233 236 240 236 243 248 256
351 350 342 330 324 318 336 352 348 349 13 69 96 96 97 106 116 119 85 95 308 328 16 30 59 350 344 37 10 17 60 57 283 327 353 2 32 58 74 70 76 81 9 16 134 100 44 249 241 149 126 102 67 50 67 78 99 119 136 153 264 272 319 295 311 333 312 267 278 316 318 284 289 297 267 229 223 249 255 239 247 237 237 244 242 248 247 250
347 347 341 332 332 326 335 353 2 38 75 95 92 95 104 96 97 90 66 79 311 319 9 23 119 99 355 11 358 22 94 95 224 312 347 13 92 48 86 114 86 62 356 343 139 139 203 245 136 90 77 94 103 36 80 107 310 270 190 192 229 252 229 235 296 332 313 306 291 307 310 280 293 316 299 299 287 271 264 260 262 246 240 253 262 257 245 243
351 349 344 339 337 332 335 351 25 86 92 94 92 94 95 69 37 71 77 61 325 310 336 313 114 121 175 359 351 7 140 54 217 292 342 24 103 8 70 131 101 101 249 213 118 111 194 223 129 97 58 69 126 232 193 171 293 304 238 209 192 175 267 283 331 352 345 339 347 6 341 291 306 307 276 308 338 286 250 243 257 254 247 247 253 255 249 246
355 353 348 344 343 340 332 331 94 105 91 85 96 94 78 66 59 85 80 54 334 295 320 268 67 12 310 352 349 16 100 339 295 321 2 21 27 128 107 316 46 148 201 166 118 140 155 54 77 122 101 73 83 256 233 156 110 316 261 187 136 77 1 319 332 12 344 287 301 57 91 273 304 292 270 310 321 292 282 251 256 259 251 237 240 250 252 250
358 356 351 346 348 345 329 273 181 119 40 71 119 104 82 77 60 54 60 36 336 279 359 274 312 34 344 327 347 81 92 307 315 13 22 16 352 92 104 279 124 149 192 136 357 247 149 86 65 100 99 88 99 250 217 137 115 254 236 123 66 360 310 284 200 184 245 281 313 25 153 252 294 276 273 330 310 295 295 269 261 256 248 242 240 246 249 249
360 359 356 352 352 354 359 54 165 126 25 217 167 121 68 9 292 332 77 52 316 29 69 299 326 33 349 341 28 71 275 315 50 311 349 26 11 40 41 229 172 165 191 134 240 267 155 166 185 145 115 162 211 212 181 142 125 249 211 103 11 306 250 182 148 186 295 354 315 297 141 224 275 271 308 356 313 296 288 269 261 255 248 245 244 247 248 249
360 359 0 357 353 4 27 48 81 107 358 195 169 137 328 293 296 47 77 118 295 42 74 347 337 323 343 7 19 26 347 5 73 295 333 39 34 44 75 177 136 129 21 99 191 239 212 218 199 152 153 213 218 201 168 158 191 233 161 92 59 73 73 85 116 138 38 3 265 257 155 172 274 279 312 3 283 266 266 267 263 257 255 250 248 252 252 253
357 358 1 1 358 2 9 14 21 62 91 140 161 280 322 339 49 62 46 249 296 351 240 12 304 318 16 21 342 4 31 349 326 324 344 28 8 34 97 165 101 113 359 23 133 225 324 300 205 148 179 198 173 128 164 180 226 57 112 63 39 50 57 63 77 90 63 289 256 253 236 98 302 282 249 213 227 212 218 264 275 271 272 261 251 252 255 258
356 358 2 6 8 356 341 11 44 101 112 119 164 329 2 13 65 90 229 246 227 326 359 30 330 14 36 38 308 355 17 336 329 358 15 358 354 16 50 73 54 68 358 1 344 307 351 25 251 264 204 128 112 69 52 218 5 46 72 40 7 346 30 32 358 49 92 264 260 268 297 109 224 267 252 244 258 219 191 234 261 267 274 270 262 256 256 261
353 354 2 9 16 17 39 96 93 98 107 124 111 37 63 41 28 155 263 307 353 314 3 11 323 26 27 11 347 337 330 334 3 49 57 20 19 11 36 172 202 1 336 311 318 328 311 226 268 319 191 115 120 50 350 360 33 51 47 49 27 339 2 356 315 314 218 243 242 275 322 197 230 255 261 264 268 252 221 226 243 256 265 270 275 279 278 274
348 350 0 10 18 34 67 99 107 100 118 145 59 46 75 78 256 228 279 325 338 323 44 34 328 27 2 339 343 320 296 292 15 46 134 90 52 3 283 194 181 16 297 250 330 348 328 293 328 52 280 50 132 159 285 307 46 44 53 101 101 31 6 309 284 293 277 263 258 289 298 275 279 276 251 247 257 257 237 234 245 253 259 270 284 295 294 281
345 348 356 10 19 35 72 93 114 111 120 109 61 54 69 91 240 221 285 271 268 350 32 59 339 350 44 358 299 302 341 293 353 24 6 30 45 327 288 268 291 92 110 111 278 81 329 295 284 146 259 353 114 178 173 145 93 66 159 130 140 156 170 262 244 254 286 292 297 303 252 217 260 284 241 232 252 270 265 259 269 269 264 278 294 291 285 278
343 347 356 15 21 29 62 90 132 123 129 75 60 68 123 239 250 212 251 257 285 352 314 62 50 26 350 332 314 330 132 273 333 22 11 17 175 205 237 248 244 105 118 153 261 158 191 266 274 301 282 74 81 233 121 101 84 252 137 106 164 180 155 214 209 192 272 316 299 267 230 218 231 274 281 275 281 289 289 292 298 285 282 299 293 282 278 276
343 349 14 22 20 24 24 3 173 199 95 81 64 77 192 227 240 184 209 252 58 187 294 347 39 44 325 316 337 356 10 270 332 3 336 264 215 196 202 226 194 127 136 167 226 153 15 280 300 345 346 69 136 230 58 62 163 137 120 181 222 175 118 116 266 16 67 312 280 232 250 286 313 296 305 358 342 322 336 337 313 287 291 304 282 276 278 274
345 354 46 21 16 18 9 3 165 187 74 85 93 214 219 222 195 182 194 348 242 152 86 1 341 35 297 304 314 325 340 305 331 357 290 275 250 178 177 238 170 149 170 172 231 206 149 280 301 23 63 352 220 186 26 24 123 119 179 221 215 107 88 98 296 342 39 263 272 254 255 287 334 295 319 2 346 325 330 330 318 300 298 294 280 277 278 274
343 27 74 20 13 15 17 17 125 106 74 80 143 240 220 203 192 178 179 156 250 74 89 171 249 191 190 241 282 289 326 309 326 9 282 279 282 159 146 186 114 66 249 146 285 287 121 283 305 3 171 308 358 73 353 349 67 116 196 207 107 145 236 64 137 272 330 282 284 287 274 259 206 239 304 334 312 305 310 315 314 305 301 296 290 287 286 286
346 33 35 7 10 27 35 31 90 67 71 93 231 246 223 231 263 210 197 337 112 103 125 210 252 34 175 182 230 265 321 280 253 26 247 255 287 157 127 162 149 46 349 88 134 236 101 126 289 288 224 307 7 94 237 293 35 38 6 346 43 153 189 176 158 185 199 276 291 308 313 273 215 209 228 277 285 294 301 306 303 294 293 293 291 293 294 294
7 56 314 350 13 41 43 45 58 57 73 174 209 214 293 289 282 327 329 335 137 142 206 204 178 285 220 211 225 242 12 204 182 178 234 246 284 280 75 111 150 133 359 34 103 202 66 118 255 294 319 296 257 210 200 183 146 84 133 241 311 119 161 209 242 152 146 205 236 295 298 274 222 190 207 262 284 284 281 288 291 294 299 298 294 295 296 296
55 54 299 349 20 27 38 48 45 56 105 188 215 212 317 347 191 340 340 2 91 227 166 158 164 189 207 222 255 219 151 177 183 197 247 242 246 281 12 38 147 158 114 53 74 232 75 155 216 291 311 244 239 249 199 180 166 152 179 206 188 148 121 151 286 292 112 197 182 197 283 279 206 177 218 249 272 279 282 289 296 301 302 302 300 298 296 297
72 61 298 6 15 297 51 58 33 71 119 185 270 241 317 47 114 330 333 10 34 60 70 100 164 179 175 186 215 189 177 199 190 202 238 220 208 231 354 14 330 187 113 123 251 243 140 111 169 269 261 242 260 311 81 161 148 136 179 197 154 137 130 156 247 269 227 234 160 122 276 282 155 191 231 229 246 278 292 298 305 305 302 304 303 300 299 298
94 206 310 17 10 41 71 42 321 7 43 256 303 266 244 79 119 40 305 300 355 91 17 330 198 189 214 204 147 172 200 205 186 193 225 233 237 257 347 355 333 359 81 101 261 277 110 87 7 282 286 310 331 360 26 56 93 117 264 149 139 152 140 159 192 197 210 224 141 90 275 277 298 244 229 208 267 308 315 315 317 312 309 309 304 302 303 302
169 221 293 11 6 79 113 175 280 321 289 295 1 314 255 186 165 164 231 247 223 158 153 247 206 190 214 160 109 186 206 213 214 218 211 220 247 5 30 350 345 38 60 152 156 4 278 195 57 329 324 332 343 354 350 351 42 218 254 230 163 125 101 116 169 122 267 225 166 180 267 265 269 315 311 317 329 332 328 325 324 318 315 317 314 312 312 310
90 299 292 352 20 68 126 179 155 169 255 336 351 292 293 306 209 185 201 225 203 169 179 274 226 125 97 97 67 227 222 280 261 297 20 245 264 355 38 352 348 44 5 317 336 321 252 205 125 285 298 300 304 311 307 298 291 255 236 220 208 151 138 171 178 126 245 236 161 179 259 275 299 317 315 319 330 331 327 328 324 317 318 323 322 320 319 320
64 5 312 330 17 58 65 113 111 119 166 166 302 299 120 250 279 259 177 204 181 152 193 302 172 84 71 125 112 275 268 336 32 352 343 258 271 321 43 26 37 45 346 332 3 54 93 258 209 193 210 238 259 267 248 88 299 282 272 239 205 190 173 135 95 203 220 223 216 227 252 281 296 302 305 316 328 327 326 325 317 313 319 323 319 316 317 319
93 169 352 327 347 33 34 21 59 80 166 188 210 257 214 254 302 348 177 219 140 119 220 204 161 171 181 184 197 250 263 17 55 287 244 237 266 301 4 99 66 13 346 329 357 78 89 295 247 201 224 247 261 274 288 320 275 269 273 266 221 185 168 151 203 238 222 78 280 262 250 271 285 295 306 317 323 322 319 316 310 309 314 315 313 314 316 319
59 188 153 109 266 283 23 9 75 92 71 143 158 189 269 292 287 249 216 317 12 184 200 245 252 218 193 177 149 189 297 344 296 248 248 261 296 332 2 65 51 349 344 355 350 97 125 251 247 191 251 267 270 276 276 268 261 255 264 271 254 191 182 194 228 243 222 197 266 275 279 278 286 299 308 312 313 312 311 307 303 305 311 315 317 319 322 326
57 133 308 28 33 204 206 345 105 109 87 77 117 206 188 198 244 244 200 70 352 291 188 237 271 251 205 184 130 158 233 257 290 270 224 204 275 321 339 335 35 342 1 61 354 115 149 240 244 153 287 280 271 273 270 258 264 270 267 267 256 220 210 215 240 255 247 241 260 276 285 286 289 293 296 301 302 301 303 302 305 311 318 323 321 322 328 331
105 174 242 36 52 121 38 20 87 104 58 18 214 250 184 180 227 254 195 157 229 272 183 219 262 256 197 184 157 207 218 180 211 261 180 166 277 215 220 228 154 38 18 81 351 293 188 268 222 104 317 282 271 285 289 255 257 276 283 278 264 246 236 229 245 262 257 252 262 276 286 285 282 283 290 300 305 309 312 312 315 318 320 322 322 327 334 333
158 164 149 115 108 314 2 13 87 104 357 296 214 229 213 205 215 222 239 203 177 190 185 186 194 107 90 155 197 240 233 179 196 231 184 186 241 210 213 208 145 128 104 162 51 57 165 270 6 60 349 282 288 344 323 302 291 287 297 296 275 213 222 222 226 229 220 246 279 294 292 285 293 305 307 307 310 314 313 314 318 317 317 321 325 330 333 330
164 141 107 110 124 292 71 44 38 76 256 246 205 203 237 246 228 188 273 312 68 115 194 177 160 123 71 197 224 240 230 197 223 240 193 184 188 131 133 113 124 136 166 167 136 102 145 159 16 56 306 275 310 344 314 314 335 329 308 302 243 219 252 255 267 254 219 222 285 290 276 290 308 317 314 313 316 316 313 314 314 310 311 317 326 331 331 328